Content
SEND FEEDBACK

Daily
Averages
Monthly
Summary
United States of America

ANN ARBOR, MICHIGAN


Home > North America > United States > Michigan
Elevation: 759 feet     Latitude: 42 17N     Longitude: 083 43W

WEATHER
 
SELECT A DAY
Number of Records: 204,264;   Date Range: 1/1/95 - 9/13/14
 
SHARE

PRINT THIS DATA

[ ← Previous Day ]
WEATHER ALMANAC - JUNE 7, 2014
[ Next Day → ]
[ °C ]   °F
Weather ElementAverageHighLow
Temperature58.3 °F80.1 °F (4:53 pm)45 °F (6:18 am)
Dewpoint48.1 °F57 °F (7:53 am)43 °F (3:53 pm)
Humidity75.8 %100 % (2:31 am)28 % (3:53 pm)
Barometer30.00 in30.05 in (7:53 am)29.89 in (9:53 pm)
Wind Speed2.3 mph11.5 mph (12:53 pm)
Weather ElementAverage
Visibility5.4 mi
Wind DirectionNE (39.6 °)

Weather ElementTotal
Precipitation---
Heating Degree Days2.5 (Base 65)
Growing Degree Days12.6 (Base 50)
Averaged from 45 records on June 7, 2014
WEATHER CONDITIONS BREAKOUT
WIND DIRECTION BREAKOUT
WEATHER BY HOUR - JUNE 7, 2014
[ °C ]   °F
Local TimeTemperatureDewpointHumidityBarometerVisibilityWind DirectionWind SpeedGust SpeedPrecipitationEventsConditions
1:53 AM50.0 °F48.0 °F93 %30.01 in8.0 miCalmClear
2:20 AM51.1 °F48.9 °F92 %30.02 in1.2 miCalmClear
2:31 AM50.0 °F50.0 °F100 %30.02 in2.5 miCalmClear
2:38 AM48.0 °F48.0 °F100 %30.03 in5.0 miCalmClear
2:51 AM48.2 °F48.2 °F100 %30.03 in1.8 miWSW (240°)3.5 mphClear
2:53 AM48.0 °F46.9 °F96 %30.02 in1.2 miCalmClear
3:03 AM51.1 °F50.0 °F96 %30.02 in2.0 miCalmClear
3:12 AM51.1 °F48.9 °F92 %30.02 in8.0 miCalmClear
3:16 AM51.1 °F48.9 °F92 %30.03 in1.5 miCalmClear
3:18 AM50.0 °F48.0 °F93 %30.03 in0.8 miCalmClear
3:36 AM50.0 °F48.9 °F96 %30.03 in1.8 miCalmClear
3:39 AM50.0 °F48.9 °F96 %30.03 in0.8 miCalmClear
3:53 AM48.0 °F46.0 °F93 %30.02 in0.8 miCalmClear
4:04 AM48.9 °F46.9 °F93 %30.03 in1.5 miCalmClear
4:06 AM48.9 °F48.0 °F97 %30.03 in3.0 miCalmClear
4:31 AM48.9 °F48.0 °F97 %30.02 in1.5 miCalmClear
4:33 AM48.9 °F48.0 °F97 %30.01 in0.8 miCalmClear
4:44 AM48.9 °F46.9 °F93 %30.01 in2.5 miCalmClear
4:51 AM48.2 °F48.2 °F100 %30.01 in5.0 miCalmClear
5:22 AM46.0 °F45.0 °F96 %30.02 in1.8 miCalmClear
5:30 AM46.9 °F45.0 °F93 %30.01 in0.8 miCalmClear
5:49 AM48.2 °F46.4 °F93 %30.00 in1.5 miCalmClear
5:53 AM48.9 °F46.9 °F93 %30.00 in4.0 miCalmClear
6:18 AM45.0 °F44.1 °F97 %30.03 in1.2 miCalmClear
6:25 AM46.9 °F46.0 °F97 %30.03 in0.5 miCalmFogFog
6:29 AM46.9 °F46.0 °F97 %30.03 in1.5 miCalmClear
6:31 AM46.9 °F46.0 °F97 %30.03 in3.0 miCalmClear
6:53 AM50.0 °F48.9 °F96 %30.04 in10.0 miCalmClear
7:53 AM61.0 °F57.0 °F87 %30.05 in10.0 miCalmClear
8:53 AM70.0 °F54.0 °F57 %30.05 in10.0 miENE (60°)3.5 mphClear
9:53 AM75.9 °F53.1 °F45 %30.04 in10.0 miNE (40°)5.8 mphClear
10:40 AM77.0 °F50.0 °F39 %30.03 in10.0 miVariable6.9 mphPartly Cloudy
11:53 AM78.1 °F46.9 °F33 %30.01 in10.0 miESE (110°)9.2 mphClear
12:53 PM79.0 °F48.0 °F34 %30.01 in10.0 miSSE (150°)11.5 mphClear
1:53 PM79.0 °F48.0 °F34 %29.99 in10.0 miSouth (180°)10.4 mphPartly Cloudy
2:53 PM79.0 °F44.1 °F29 %29.98 in10.0 miSE (140°)6.9 mphClear
3:53 PM79.0 °F43.0 °F28 %29.95 in10.0 miSE (140°)5.8 mphClear
4:53 PM80.1 °F45.0 °F29 %29.94 in10.0 miCalmClear
5:53 PM77.0 °F50.0 °F39 %29.94 in10.0 miSE (130°)8.1 mphClear
6:53 PM77.0 °F51.1 °F40 %29.92 in10.0 miESE (120°)8.1 mphClear
7:53 PM73.0 °F50.0 °F44 %29.92 in10.0 miSE (140°)5.8 mphClear
8:53 PM70.0 °F48.9 °F47 %29.90 in10.0 miSE (130°)5.8 mphClear
9:53 PM69.1 °F48.0 °F47 %29.89 in10.0 miESE (110°)6.9 mphClear
10:53 PM66.9 °F48.9 °F52 %29.90 in10.0 miCalmScattered Clouds
11:53 PM66.9 °F50.0 °F54 %29.89 in10.0 miEast (90°)3.5 mphClear
Hourly data recorded from KARB, located miles away from Ann Arbor, Michigan







STORIES FROM OUR PARTNERS